Weather History for Big Bear City, CA

Change the Weather History Date:

Tuesday, November 20, 2012

  Actual Average (KBUO) Record (KBUO)
Temperature  
Mean Temperature 39 °F -  
Max Temperature 55 °F 65 °F 71 °F (1996)
Min Temperature 23 °F 44 °F 44 °F (1996)
Degree Days  
Heating Degree Days 26    
Moisture  
Dew Point 15 °F    
Average Humidity 46    
Maximum Humidity 74    
Minimum Humidity 15    
Precipitation  
Precipitation 0.00 in - - ()
Sea Level Pressure  
Sea Level Pressure 30.24 in    
Wind  
Wind Speed 2 mph (West)    
Max Wind Speed 12 mph    
Max Gust Speed -    
Visibility 10 miles    
Events      
Averages and records for this station are not official NWS values.
T = Trace of Precipitation, MM = Missing Value Source: NWS Daily Summary

Daily Weather History Graph

Daily Weather History Graph

Search for Another Location

Airport:

Trip Planner

Search our weather history database for the weather conditions in past years. The results will help you decide how hot, cold, wet, or windy it might be!

Date:

Astronomy

Nov. 20, 2012 Rise Set
Actual Time 6:25 AM PST 4:40 PM PST
Civil Twilight 5:58 AM PST 5:07 PM PST
Nautical Twilight 5:28 AM PST 5:37 PM PST
Astronomical Twilight 4:58 AM PST 6:07 PM PST
Moon 12:11 PM PST (11/20) No Moon Set
Length of Visible Light 11h 08m
Length of Day
10h 14m
First Quarter, 52% of the Moon is Illuminated
Nov 20
First Quarter
Nov 28
Full
Dec 6
Last Quarter
Dec 13
New
Dec 19
First Quarter

Hourly Weather History & Observations

Time (PST) Temp. Windchill Dew Point Humidity Pressure Visibility Wind Dir Wind Speed Gust Speed Precip Events Conditions
12:15 AM 26.6 °F - 14.0 °F 59% 30.31 in 10.0 mi Calm Calm - N/A   Clear
12:35 AM 26.6 °F - 14.0 °F 59% 30.31 in 10.0 mi Calm Calm - N/A   Clear
4:15 AM 23.0 °F - 15.8 °F 74% 30.27 in 10.0 mi Calm Calm - N/A   Clear
4:35 AM 24.8 °F - 14.0 °F 64% 30.27 in 10.0 mi Calm Calm - N/A   Clear
4:55 AM 23.0 °F - 12.2 °F 63% 30.27 in 10.0 mi Calm Calm - N/A   Clear
5:15 AM 23.0 °F - 12.2 °F 63% 30.27 in 10.0 mi Calm Calm - N/A   Clear
5:35 AM 23.0 °F - 14.0 °F 68% 30.28 in 10.0 mi Calm Calm - N/A   Clear
5:55 AM 23.0 °F - 14.0 °F 68% 30.28 in 10.0 mi Calm Calm - N/A   Clear
6:15 AM 23.0 °F - 14.0 °F 68% 30.28 in 10.0 mi Calm Calm - N/A   Clear
6:35 AM 23.0 °F - 14.0 °F 68% 30.29 in 10.0 mi Calm Calm - N/A   Clear
6:55 AM 23.0 °F - 12.2 °F 63% 30.29 in 10.0 mi Calm Calm - N/A   Clear
7:15 AM 24.8 °F - 14.0 °F 64% 30.29 in 10.0 mi Calm Calm - N/A   Clear
7:35 AM 28.4 °F - 14.0 °F 55% 30.29 in 10.0 mi Calm Calm - N/A   Clear
7:55 AM 30.2 °F - 15.8 °F 55% 30.29 in 10.0 mi Calm Calm - N/A   Clear
8:15 AM 32.0 °F - 17.6 °F 55% 30.29 in 10.0 mi Calm Calm - N/A   Clear
8:35 AM 37.4 °F - 21.2 °F 52% 30.29 in 10.0 mi Calm Calm - N/A   Clear
8:55 AM 42.8 °F 41.1 °F 19.4 °F 39% 30.29 in 10.0 mi West 3.5 mph - N/A   Clear
9:15 AM 44.6 °F - 19.4 °F 37% 30.29 in 10.0 mi Calm Calm - N/A   Clear
9:35 AM 50.0 °F - 14.0 °F 24% 30.29 in 10.0 mi West 3.5 mph - N/A   Clear
9:55 AM 53.6 °F - 10.4 °F 18% 30.28 in 10.0 mi West 6.9 mph - N/A   Clear
10:15 AM 53.6 °F - 8.6 °F 16% 30.28 in 10.0 mi West 8.1 mph - N/A   Clear
10:35 AM 53.6 °F - 10.4 °F 18% 30.27 in 10.0 mi West 9.2 mph - N/A   Clear
10:55 AM 55.4 °F - 10.4 °F 17% 30.26 in 10.0 mi West 9.2 mph - N/A   Clear
11:15 AM 55.4 °F - 8.6 °F 15% 30.25 in 10.0 mi West 8.1 mph - N/A   Clear
11:35 AM 55.4 °F - 8.6 °F 15% 30.23 in 10.0 mi West 8.1 mph - N/A   Clear
12:15 PM 55.4 °F - 8.6 °F 15% 30.22 in 10.0 mi West 11.5 mph - N/A   Clear
12:35 PM 55.4 °F - 8.6 °F 15% 30.22 in 10.0 mi WSW 10.4 mph - N/A   Clear
12:55 PM 55.4 °F - 8.6 °F 15% 30.21 in 10.0 mi West 10.4 mph - N/A   Clear
1:15 PM 55.4 °F - 8.6 °F 15% 30.20 in 10.0 mi West 11.5 mph - N/A   Clear
1:35 PM 55.4 °F - 10.4 °F 17% 30.20 in 10.0 mi WSW 9.2 mph - N/A   Clear
1:55 PM 55.4 °F - 8.6 °F 15% 30.19 in 10.0 mi WSW 8.1 mph - N/A   Clear
2:15 PM 55.4 °F - 10.4 °F 17% 30.19 in 10.0 mi WSW 9.2 mph - N/A   Clear
2:35 PM 55.4 °F - 12.2 °F 18% 30.19 in 10.0 mi West 10.4 mph - N/A   Clear
2:55 PM 53.6 °F - 14.0 °F 21% 30.19 in 10.0 mi West 5.8 mph - N/A   Clear
3:15 PM 53.6 °F - 15.8 °F 22% 30.19 in 10.0 mi WSW 4.6 mph - N/A   Clear
3:35 PM 51.8 °F - 15.8 °F 24% 30.19 in 10.0 mi West 9.2 mph - N/A   Clear
3:55 PM 51.8 °F - 17.6 °F 26% 30.20 in 10.0 mi WSW 6.9 mph - N/A   Clear
4:15 PM 50.0 °F - 19.4 °F 30% 30.19 in 10.0 mi West 5.8 mph - N/A   Clear
4:35 PM 46.4 °F 43.5 °F 21.2 °F 37% 30.19 in 10.0 mi West 5.8 mph - N/A   Clear
4:55 PM 44.6 °F - 21.2 °F 39% 30.20 in 10.0 mi Calm Calm - N/A   Clear
5:15 PM 42.8 °F - 21.2 °F 42% 30.20 in 10.0 mi Calm Calm - N/A   Clear
5:35 PM 39.2 °F - 19.4 °F 45% 30.20 in 10.0 mi Calm Calm - N/A   Clear
5:55 PM 37.4 °F - 21.2 °F 52% 30.21 in 10.0 mi Calm Calm - N/A   Clear
6:15 PM 35.6 °F - 19.4 °F 52% 30.21 in 10.0 mi Calm Calm - N/A   Clear
6:35 PM 32.0 °F - 21.2 °F 64% 30.22 in 10.0 mi Calm Calm - N/A   Clear
6:55 PM 32.0 °F - 21.2 °F 64% 30.22 in 10.0 mi Calm Calm - N/A   Clear
7:15 PM 32.0 °F - 19.4 °F 60% 30.23 in 10.0 mi Calm Calm - N/A   Clear
7:35 PM 32.0 °F - 19.4 °F 60% 30.23 in 10.0 mi Calm Calm - N/A   Clear
7:55 PM 30.2 °F - 19.4 °F 64% 30.23 in 10.0 mi Calm Calm - N/A   Clear
8:15 PM 30.2 °F - 19.4 °F 64% 30.23 in 10.0 mi Calm Calm - N/A   Clear
8:35 PM 28.4 °F - 19.4 °F 69% 30.23 in 10.0 mi Calm Calm - N/A   Clear
8:55 PM 28.4 °F - 19.4 °F 69% 30.23 in 10.0 mi Calm Calm - N/A   Clear
9:15 PM 28.4 °F - 19.4 °F 69% 30.23 in 7.0 mi Calm Calm - N/A   Clear
9:35 PM 28.4 °F - 19.4 °F 69% 30.23 in 10.0 mi Calm Calm - N/A   Clear
9:55 PM 26.6 °F - 17.6 °F 69% 30.23 in 10.0 mi Calm Calm - N/A   Clear
10:15 PM 26.6 °F - 15.8 °F 64% 30.22 in 10.0 mi Calm Calm - N/A   Clear
10:35 PM 26.6 °F - 15.8 °F 64% 30.22 in 10.0 mi Calm Calm - N/A   Clear
10:55 PM 26.6 °F - 15.8 °F 64% 30.22 in 10.0 mi Calm Calm - N/A   Clear
11:15 PM 26.6 °F - 15.8 °F 64% 30.22 in 10.0 mi Calm Calm - N/A   Clear
11:35 PM 26.6 °F - 14.0 °F 59% 30.22 in 10.0 mi Calm Calm - N/A   Clear
11:55 PM 26.6 °F - 14.0 °F 59% 30.21 in 10.0 mi Calm Calm - N/A   Clear